DLH2480 EDDM-EGLL

Flight info

Callsign DLH2480
Flight time 1h 35m
Altitude 34000
Route GIVMI1N/26R GIVMI Y101 INBED DCT REKDI DCT LOHRE DCT ADKUV DCT DENUT L608 LOGAN
Aircraft A21N/M-SDE2E3FGHIRWXY/LB1

Departure

Time 2026-05-07 18:50
Airport Munich Airport (EDDM)

Arrival

Time 2026-05-07 20:25
Airport London Heathrow Airport (EGLL)
Time Latitude Longitude Altitude Speed Heading
2026-05-07 18:40 48.35748 11.79542 1464 ft 21 kts 353°
2026-05-07 18:40 48.35891 11.79517 1468 ft 20 kts 351°
2026-05-07 18:41 48.35936 11.79509 1465 ft 0 kts 354°
2026-05-07 18:41 48.35943 11.79508 1466 ft 4 kts 354°
2026-05-07 18:42 48.35987 11.79500 1464 ft 9 kts 353°
2026-05-07 18:42 48.36047 11.79491 1468 ft 9 kts 353°
2026-05-07 18:42 48.36188 11.79484 1471 ft 21 kts 24°
2026-05-07 18:42 48.36225 11.79626 1464 ft 21 kts 83°
2026-05-07 18:43 48.36243 11.79855 1467 ft 22 kts 84°
2026-05-07 18:43 48.36259 11.80079 1471 ft 21 kts 83°
2026-05-07 18:43 48.36276 11.80298 1463 ft 21 kts 83°
2026-05-07 18:43 48.36293 11.80506 1462 ft 20 kts 84°
2026-05-07 18:44 48.36309 11.80712 1460 ft 23 kts 84°
2026-05-07 18:44 48.36329 11.80963 1470 ft 24 kts 84°
2026-05-07 18:44 48.36347 11.81201 1467 ft 23 kts 82°
2026-05-07 18:44 48.36364 11.81430 1465 ft 22 kts 83°
2026-05-07 18:45 48.36384 11.81685 1465 ft 26 kts 84°
2026-05-07 18:45 48.36392 11.81929 1462 ft 18 kts 98°
2026-05-07 18:45 48.36425 11.82015 1461 ft 9 kts 12°
2026-05-07 18:45 48.36478 11.82005 1463 ft 7 kts 352°
2026-05-07 18:46 48.36528 11.81996 1466 ft 7 kts 353°
2026-05-07 18:46 48.36556 11.81991 1463 ft 0 kts 354°
2026-05-07 18:47 48.36559 11.81991 1464 ft 3 kts 354°
2026-05-07 18:47 48.36631 11.81967 1461 ft 14 kts 331°
2026-05-07 18:47 48.36667 11.81810 1459 ft 18 kts 264°
2026-05-07 18:47 48.36662 11.81756 1463 ft 0 kts 262°
2026-05-07 18:48 48.36662 11.81753 1463 ft 0 kts 263°
2026-05-07 18:48 48.36661 11.81747 1463 ft 1 kts 263°
2026-05-07 18:48 48.36661 11.81741 1463 ft 1 kts 263°
2026-05-07 18:48 48.36660 11.81727 1464 ft 6 kts 263°
2026-05-07 18:49 48.36642 11.81501 1463 ft 48 kts 263°
2026-05-07 18:49 48.36581 11.80698 1461 ft 106 kts 263°
2026-05-07 18:49 48.36474 11.79282 1473 ft 164 kts 264°
2026-05-07 18:49 48.36324 11.77395 1672 ft 187 kts 264°
2026-05-07 18:50 48.36197 11.75462 2265 ft 185 kts 266°
2026-05-07 18:50 48.36100 11.73535 2942 ft 182 kts 267°
2026-05-07 18:50 48.35993 11.71573 3390 ft 197 kts 266°
2026-05-07 18:50 48.35851 11.69425 3704 ft 218 kts 267°
2026-05-07 18:51 48.36055 11.67068 4001 ft 240 kts 295°
2026-05-07 18:51 48.36841 11.65020 4514 ft 252 kts 303°
2026-05-07 18:51 48.37476 11.63577 4959 ft 259 kts 303°
2026-05-07 18:51 48.38488 11.61282 5723 ft 264 kts 301°
2026-05-07 18:52 48.39445 11.58930 6513 ft 264 kts 300°
2026-05-07 18:52 48.40391 11.56562 6928 ft 265 kts 300°
2026-05-07 18:52 48.41329 11.54218 7046 ft 265 kts 300°
2026-05-07 18:52 48.42287 11.51837 7056 ft 266 kts 300°
2026-05-07 18:53 48.43249 11.49452 7054 ft 266 kts 300°
2026-05-07 18:53 48.44211 11.47072 7054 ft 266 kts 300°
2026-05-07 18:53 48.45289 11.44805 7058 ft 267 kts 312°
2026-05-07 18:53 48.46785 11.43148 7056 ft 270 kts 334°
2026-05-07 18:54 48.48589 11.42324 7064 ft 273 kts 346°
2026-05-07 18:54 48.50458 11.41797 7063 ft 274 kts 348°
2026-05-07 18:54 48.51699 11.41477 7068 ft 274 kts 347°
2026-05-07 18:54 48.53581 11.40991 7057 ft 273 kts 347°
2026-05-07 18:55 48.55453 11.40497 7086 ft 273 kts 346°
2026-05-07 18:55 48.57338 11.39988 7544 ft 277 kts 346°
2026-05-07 18:55 48.59237 11.39470 8369 ft 278 kts 346°
2026-05-07 18:55 48.61772 11.38774 9444 ft 282 kts 345°
2026-05-07 18:56 48.63082 11.38413 9959 ft 285 kts 345°
2026-05-07 18:56 48.65061 11.37865 10470 ft 297 kts 345°
2026-05-07 18:56 48.67166 11.37279 10789 ft 317 kts 346°
2026-05-07 18:56 48.69376 11.36526 11086 ft 334 kts 339°
2026-05-07 18:57 48.71511 11.35110 11472 ft 344 kts 329°
2026-05-07 18:57 48.73606 11.33262 12093 ft 350 kts 325°
2026-05-07 18:57 48.75651 11.31220 12799 ft 354 kts 323°
2026-05-07 18:57 48.77687 11.29080 13514 ft 358 kts 323°
2026-05-07 18:58 48.79740 11.26899 14191 ft 362 kts 323°
2026-05-07 18:58 48.81821 11.24708 14844 ft 365 kts 323°
2026-05-07 18:58 48.83990 11.22664 15513 ft 369 kts 331°
2026-05-07 18:58 48.86351 11.21071 16157 ft 373 kts 335°
2026-05-07 18:59 48.88786 11.19657 16820 ft 377 kts 337°
2026-05-07 18:59 48.91249 11.18359 17436 ft 380 kts 338°
2026-05-07 18:59 48.93777 11.17094 18052 ft 384 kts 339°
2026-05-07 18:59 48.96331 11.15838 18612 ft 386 kts 339°
2026-05-07 19:00 48.98902 11.14569 19132 ft 389 kts 339°
2026-05-07 19:00 49.01488 11.13281 19634 ft 393 kts 339°
2026-05-07 19:00 49.04092 11.11972 20140 ft 395 kts 339°
2026-05-07 19:00 49.06712 11.10643 20655 ft 398 kts 339°
2026-05-07 19:01 49.09352 11.09297 21147 ft 401 kts 339°
2026-05-07 19:01 49.12008 11.07940 21615 ft 405 kts 339°
2026-05-07 19:01 49.14689 11.06569 22089 ft 408 kts 339°
2026-05-07 19:01 49.17356 11.05205 22569 ft 410 kts 339°
2026-05-07 19:02 49.20104 11.03798 23049 ft 413 kts 339°
2026-05-07 19:02 49.22800 11.02412 23490 ft 416 kts 339°
2026-05-07 19:02 49.25564 11.00987 23767 ft 421 kts 339°
2026-05-07 19:02 49.28346 10.99552 24115 ft 424 kts 339°
2026-05-07 19:03 49.31152 10.98104 24496 ft 425 kts 339°
2026-05-07 19:03 49.33952 10.96624 24856 ft 427 kts 336°
2026-05-07 19:03 49.36658 10.94753 25202 ft 427 kts 329°
2026-05-07 19:03 49.39166 10.92289 25534 ft 426 kts 320°
2026-05-07 19:04 49.41323 10.89174 25878 ft 426 kts 311°
2026-05-07 19:04 49.43260 10.85723 26214 ft 427 kts 307°
2026-05-07 19:04 49.45076 10.82092 26529 ft 429 kts 305°
2026-05-07 19:04 49.46831 10.78365 26851 ft 431 kts 304°
2026-05-07 19:05 49.48545 10.74640 27050 ft 435 kts 304°
2026-05-07 19:05 49.50297 10.70822 27331 ft 437 kts 304°
2026-05-07 19:05 49.52063 10.67001 27636 ft 439 kts 304°
2026-05-07 19:05 49.53841 10.63181 27985 ft 439 kts 305°
2026-05-07 19:06 49.55624 10.59372 28425 ft 437 kts 305°
2026-05-07 19:06 49.59175 10.51817 29249 ft 434 kts 305°
2026-05-07 19:06 49.60951 10.48037 29632 ft 433 kts 305°
2026-05-07 19:07 49.62715 10.44278 29992 ft 432 kts 305°
2026-05-07 19:07 49.64475 10.40521 30330 ft 431 kts 305°
2026-05-07 19:07 49.66227 10.36773 30623 ft 430 kts 305°
2026-05-07 19:07 49.67978 10.33022 30900 ft 430 kts 305°
2026-05-07 19:08 49.69726 10.29271 31168 ft 429 kts 305°
2026-05-07 19:08 49.71464 10.25535 31412 ft 429 kts 305°
2026-05-07 19:08 49.73209 10.21780 31665 ft 429 kts 305°
2026-05-07 19:08 49.74944 10.18042 31930 ft 429 kts 305°
2026-05-07 19:09 49.76683 10.14287 32082 ft 430 kts 305°
2026-05-07 19:09 49.78428 10.10517 32291 ft 430 kts 305°
2026-05-07 19:09 49.80168 10.06750 32511 ft 430 kts 305°
2026-05-07 19:09 49.81909 10.02979 32759 ft 429 kts 304°
2026-05-07 19:10 49.83621 9.99262 32963 ft 429 kts 305°
2026-05-07 19:10 49.85347 9.95512 33222 ft 427 kts 304°
2026-05-07 19:10 49.87069 9.91763 33432 ft 427 kts 304°
2026-05-07 19:10 49.88792 9.88008 33618 ft 427 kts 304°
2026-05-07 19:11 49.90511 9.84257 33798 ft 427 kts 304°
2026-05-07 19:11 49.92230 9.80499 33963 ft 427 kts 304°
2026-05-07 19:11 49.93952 9.76729 34064 ft 429 kts 304°
2026-05-07 19:11 49.95682 9.72936 34066 ft 428 kts 304°
2026-05-07 19:12 49.99118 9.65389 34067 ft 428 kts 304°
2026-05-07 19:12 50.02548 9.57832 34079 ft 427 kts 304°
2026-05-07 19:13 50.05840 9.50139 34068 ft 427 kts 297°
2026-05-07 19:13 50.07970 9.41533 34069 ft 427 kts 287°
2026-05-07 19:14 50.09608 9.32642 34067 ft 427 kts 285°
2026-05-07 19:14 50.11141 9.23721 34067 ft 427 kts 285°
2026-05-07 19:15 50.12680 9.14765 34062 ft 427 kts 285°
2026-05-07 19:15 50.14222 9.05860 34068 ft 425 kts 285°
2026-05-07 19:16 50.15764 8.96963 34069 ft 425 kts 285°
2026-05-07 19:16 50.17300 8.88060 34070 ft 425 kts 285°
2026-05-07 19:17 50.18828 8.79151 34071 ft 425 kts 285°
2026-05-07 19:17 50.20348 8.70249 34072 ft 425 kts 285°
2026-05-07 19:18 50.21851 8.61392 34074 ft 425 kts 285°
2026-05-07 19:18 50.23357 8.52477 34074 ft 425 kts 285°
2026-05-07 19:19 50.24857 8.43549 34070 ft 425 kts 285°
2026-05-07 19:19 50.26350 8.34617 34069 ft 425 kts 284°
2026-05-07 19:20 50.27820 8.25778 34069 ft 425 kts 284°
2026-05-07 19:20 50.29258 8.17086 34073 ft 424 kts 284°
2026-05-07 19:21 50.30730 8.08140 34070 ft 424 kts 284°
2026-05-07 19:21 50.32018 8.00273 34072 ft 424 kts 284°
2026-05-07 19:22 50.33466 7.91386 34071 ft 424 kts 284°
2026-05-07 19:22 50.34790 7.83218 34071 ft 425 kts 283°
2026-05-07 19:23 50.36055 7.75384 34069 ft 425 kts 283°
2026-05-07 19:23 50.37498 7.66392 34070 ft 425 kts 283°
2026-05-07 19:24 50.38933 7.57401 34064 ft 425 kts 283°
2026-05-07 19:24 50.40518 7.48457 34064 ft 425 kts 289°
2026-05-07 19:25 50.42604 7.39762 34063 ft 426 kts 290°
2026-05-07 19:25 50.44763 7.31105 34062 ft 426 kts 290°
2026-05-07 19:26 50.46941 7.22449 34061 ft 426 kts 290°
2026-05-07 19:26 50.49111 7.13784 34062 ft 426 kts 290°
2026-05-07 19:27 50.51271 7.05104 34063 ft 427 kts 290°
2026-05-07 19:27 50.53414 6.96456 34071 ft 427 kts 290°
2026-05-07 19:28 50.55561 6.87755 34063 ft 425 kts 290°
2026-05-07 19:28 50.57693 6.79078 34064 ft 425 kts 289°
2026-05-07 19:29 50.59817 6.70398 34069 ft 425 kts 289°
2026-05-07 19:29 50.61921 6.61771 34070 ft 425 kts 289°
2026-05-07 19:30 50.64033 6.53075 34076 ft 425 kts 289°
2026-05-07 19:30 50.66136 6.44385 34073 ft 423 kts 289°
2026-05-07 19:31 50.68225 6.35715 34072 ft 423 kts 289°
2026-05-07 19:31 50.70312 6.27016 34072 ft 423 kts 289°
2026-05-07 19:32 50.72391 6.18322 34074 ft 424 kts 289°
2026-05-07 19:32 50.74468 6.09597 34074 ft 424 kts 289°
2026-05-07 19:33 50.76535 6.00883 34074 ft 423 kts 289°
2026-05-07 19:33 50.78599 5.92168 34075 ft 423 kts 289°
2026-05-07 19:34 50.80655 5.83449 34074 ft 423 kts 289°
2026-05-07 19:34 50.82690 5.74765 34075 ft 423 kts 289°
2026-05-07 19:35 50.84741 5.65977 34075 ft 423 kts 289°
2026-05-07 19:35 50.86761 5.57285 34079 ft 422 kts 288°
2026-05-07 19:36 50.88778 5.48567 34074 ft 422 kts 288°
2026-05-07 19:36 50.90790 5.39837 34076 ft 422 kts 288°
2026-05-07 19:37 50.92795 5.31105 34079 ft 422 kts 288°
2026-05-07 19:37 50.94795 5.22353 34081 ft 422 kts 288°
2026-05-07 19:38 50.96451 5.15083 34078 ft 421 kts 288°
2026-05-07 19:38 50.98435 5.06340 34083 ft 420 kts 288°
2026-05-07 19:39 51.00411 4.97592 34082 ft 420 kts 288°
2026-05-07 19:39 51.02378 4.88851 34078 ft 420 kts 288°
2026-05-07 19:40 51.04327 4.80153 34079 ft 420 kts 288°
2026-05-07 19:40 51.06280 4.71402 34086 ft 420 kts 288°
2026-05-07 19:41 51.08225 4.62648 34078 ft 419 kts 288°
2026-05-07 19:41 51.10160 4.53901 34078 ft 419 kts 288°
2026-05-07 19:42 51.12090 4.45142 34077 ft 419 kts 288°
2026-05-07 19:42 51.14012 4.36382 34073 ft 419 kts 288°
2026-05-07 19:43 51.15925 4.27625 34076 ft 419 kts 288°
2026-05-07 19:43 51.17820 4.18916 34076 ft 418 kts 287°
2026-05-07 19:44 51.19720 4.10144 34075 ft 418 kts 287°
2026-05-07 19:44 51.21616 4.01356 34076 ft 418 kts 287°
2026-05-07 19:45 51.23505 3.92559 34072 ft 418 kts 287°
2026-05-07 19:45 51.25384 3.83774 34070 ft 418 kts 287°
2026-05-07 19:46 51.27255 3.74989 34076 ft 418 kts 287°
2026-05-07 19:46 51.29108 3.66245 34078 ft 419 kts 287°
2026-05-07 19:47 51.30962 3.57454 33424 ft 415 kts 287°
2026-05-07 19:47 51.31878 3.53084 32743 ft 413 kts 287°
2026-05-07 19:47 51.32790 3.48725 32028 ft 413 kts 287°
2026-05-07 19:48 51.33702 3.44364 31306 ft 414 kts 287°
2026-05-07 19:48 51.34613 3.39998 30580 ft 415 kts 287°
2026-05-07 19:48 51.35525 3.35618 29965 ft 412 kts 287°
2026-05-07 19:48 51.36418 3.31333 29649 ft 402 kts 287°
2026-05-07 19:49 51.37294 3.27122 29225 ft 394 kts 287°
2026-05-07 19:49 51.38153 3.22985 28671 ft 390 kts 287°
2026-05-07 19:49 51.39002 3.18878 28199 ft 386 kts 287°
2026-05-07 19:49 51.39840 3.14816 28082 ft 385 kts 287°
2026-05-07 19:50 51.41586 3.06694 28081 ft 386 kts 288°
2026-05-07 19:50 51.43482 2.98636 28084 ft 386 kts 289°
2026-05-07 19:51 51.45402 2.90585 28081 ft 386 kts 289°
2026-05-07 19:51 51.47297 2.82537 28078 ft 386 kts 289°
2026-05-07 19:52 51.49173 2.74478 28077 ft 386 kts 289°
2026-05-07 19:52 51.51030 2.66448 28086 ft 386 kts 288°
2026-05-07 19:53 51.52895 2.58361 28081 ft 386 kts 288°
2026-05-07 19:53 51.53823 2.54326 27998 ft 384 kts 288°
2026-05-07 19:53 51.54745 2.50310 27441 ft 382 kts 288°
2026-05-07 19:54 51.55659 2.46317 26858 ft 381 kts 288°
2026-05-07 19:54 51.56573 2.42319 26311 ft 378 kts 288°
2026-05-07 19:54 51.57475 2.38364 25807 ft 375 kts 288°
2026-05-07 19:54 51.58370 2.34436 25344 ft 372 kts 288°
2026-05-07 19:55 51.59255 2.30550 25116 ft 370 kts 288°
2026-05-07 19:55 51.60140 2.26659 25088 ft 371 kts 288°
2026-05-07 19:55 51.61025 2.22760 25082 ft 371 kts 288°
2026-05-07 19:55 51.61897 2.18914 25085 ft 371 kts 288°
2026-05-07 19:56 51.62780 2.15012 25083 ft 371 kts 288°
2026-05-07 19:56 51.63662 2.11106 25082 ft 371 kts 288°
2026-05-07 19:56 51.64553 2.07147 25083 ft 371 kts 288°
2026-05-07 19:56 51.65430 2.03238 25081 ft 371 kts 288°
2026-05-07 19:57 51.66304 1.99333 25087 ft 371 kts 288°
2026-05-07 19:57 51.67178 1.95426 25085 ft 371 kts 288°
2026-05-07 19:57 51.68040 1.91563 25084 ft 371 kts 288°
2026-05-07 19:57 51.68912 1.87648 25079 ft 371 kts 288°
2026-05-07 19:58 51.69784 1.83727 25088 ft 371 kts 288°
2026-05-07 19:58 51.70655 1.79803 25088 ft 371 kts 288°
2026-05-07 19:58 51.71525 1.75877 25087 ft 371 kts 288°
2026-05-07 19:58 51.72393 1.71952 25091 ft 371 kts 288°
2026-05-07 19:59 51.73258 1.68031 25090 ft 371 kts 288°
2026-05-07 19:59 51.74094 1.64087 25088 ft 371 kts 284°
2026-05-07 19:59 51.74555 1.60030 24857 ft 366 kts 271°
2026-05-07 19:59 51.74480 1.55942 24327 ft 365 kts 264°
2026-05-07 20:00 51.74225 1.51869 23808 ft 363 kts 263°
2026-05-07 20:00 51.73947 1.47838 23263 ft 361 kts 263°
2026-05-07 20:00 51.73673 1.43829 22702 ft 359 kts 263°
2026-05-07 20:00 51.73404 1.39837 22131 ft 357 kts 263°
2026-05-07 20:01 51.73139 1.35864 21594 ft 354 kts 263°
2026-05-07 20:01 51.72878 1.31923 21075 ft 352 kts 263°
2026-05-07 20:01 51.72621 1.28048 20809 ft 342 kts 263°
2026-05-07 20:01 51.72371 1.24287 20605 ft 331 kts 263°
2026-05-07 20:02 51.72129 1.20651 20410 ft 320 kts 263°
2026-05-07 20:02 51.71894 1.17133 20221 ft 310 kts 263°
2026-05-07 20:02 51.71667 1.13765 19727 ft 304 kts 263°
2026-05-07 20:02 51.71434 1.10322 18734 ft 314 kts 263°
2026-05-07 20:03 51.71193 1.06777 17809 ft 319 kts 263°
2026-05-07 20:03 51.70952 1.03234 17045 ft 316 kts 262°
2026-05-07 20:03 51.70713 0.99732 16379 ft 313 kts 262°
2026-05-07 20:03 51.70475 0.96263 16094 ft 306 kts 262°
2026-05-07 20:04 51.70247 0.92939 16063 ft 290 kts 262°
2026-05-07 20:04 51.70028 0.89765 16072 ft 282 kts 262°
2026-05-07 20:04 51.69808 0.86626 16043 ft 282 kts 262°
2026-05-07 20:04 51.69589 0.83491 15624 ft 282 kts 262°
2026-05-07 20:05 51.69369 0.80361 15201 ft 281 kts 262°
2026-05-07 20:05 51.69149 0.77242 14797 ft 279 kts 262°
2026-05-07 20:05 51.68930 0.74140 14398 ft 278 kts 261°
2026-05-07 20:05 51.68710 0.71046 14004 ft 276 kts 261°
2026-05-07 20:06 51.68491 0.67971 13579 ft 275 kts 261°
2026-05-07 20:06 51.68273 0.64920 13148 ft 273 kts 261°
2026-05-07 20:06 51.68055 0.61884 12717 ft 272 kts 261°
2026-05-07 20:06 51.67838 0.58873 12318 ft 270 kts 261°
2026-05-07 20:07 51.67622 0.55875 11906 ft 269 kts 262°
2026-05-07 20:07 51.67406 0.52893 11515 ft 267 kts 262°
2026-05-07 20:07 51.67235 0.49915 11116 ft 266 kts 265°
2026-05-07 20:07 51.67152 0.46942 10747 ft 264 kts 266°
2026-05-07 20:08 51.67072 0.44010 10407 ft 261 kts 264°
2026-05-07 20:08 51.66814 0.41122 10034 ft 258 kts 258°
2026-05-07 20:08 51.66503 0.38287 9615 ft 257 kts 259°
2026-05-07 20:08 51.66225 0.35492 9192 ft 255 kts 261°
2026-05-07 20:09 51.65972 0.32667 8779 ft 254 kts 261°
2026-05-07 20:09 51.65737 0.29857 8368 ft 252 kts 262°
2026-05-07 20:09 51.65515 0.27058 8102 ft 252 kts 262°
2026-05-07 20:10 51.65082 0.21445 8073 ft 254 kts 262°
2026-05-07 20:10 51.64867 0.18620 8077 ft 254 kts 262°
2026-05-07 20:10 51.64659 0.15799 8071 ft 253 kts 263°
2026-05-07 20:10 51.64505 0.12987 8075 ft 254 kts 265°
2026-05-07 20:11 51.64407 0.10164 8071 ft 249 kts 266°
2026-05-07 20:11 51.64327 0.07442 8094 ft 240 kts 266°
2026-05-07 20:11 51.64246 0.04750 8077 ft 241 kts 266°
2026-05-07 20:11 51.64160 0.02048 8075 ft 242 kts 266°
2026-05-07 20:12 51.64076 -0.00654 8060 ft 241 kts 266°
2026-05-07 20:12 51.63984 -0.03350 8052 ft 241 kts 266°
2026-05-07 20:12 51.63887 -0.06045 8050 ft 241 kts 266°
2026-05-07 20:12 51.63789 -0.08736 8050 ft 241 kts 266°
2026-05-07 20:13 51.63691 -0.11421 8045 ft 241 kts 266°
2026-05-07 20:13 51.63591 -0.14124 8048 ft 241 kts 266°
2026-05-07 20:13 51.63491 -0.16774 8047 ft 241 kts 266°
2026-05-07 20:13 51.63391 -0.19459 7945 ft 240 kts 266°
2026-05-07 20:14 51.63291 -0.22137 7485 ft 239 kts 266°
2026-05-07 20:14 51.63188 -0.24810 7128 ft 238 kts 266°
2026-05-07 20:14 51.63083 -0.27468 7051 ft 238 kts 266°
2026-05-07 20:14 51.62977 -0.30135 7043 ft 238 kts 266°
2026-05-07 20:15 51.62870 -0.32800 7046 ft 239 kts 266°
2026-05-07 20:15 51.62764 -0.35470 7074 ft 238 kts 266°
2026-05-07 20:15 51.62660 -0.38133 7075 ft 238 kts 266°
2026-05-07 20:15 51.62556 -0.40795 7072 ft 238 kts 266°
2026-05-07 20:16 51.62451 -0.43450 7077 ft 238 kts 266°
2026-05-07 20:16 51.62346 -0.46116 7076 ft 238 kts 266°
2026-05-07 20:16 51.62242 -0.48739 7073 ft 238 kts 266°
2026-05-07 20:16 51.62138 -0.51383 7071 ft 238 kts 266°
2026-05-07 20:17 51.62031 -0.54045 7073 ft 238 kts 266°
2026-05-07 20:17 51.61925 -0.56706 7071 ft 238 kts 266°
2026-05-07 20:17 51.61819 -0.59361 6969 ft 238 kts 266°
2026-05-07 20:17 51.61709 -0.62027 6505 ft 239 kts 266°
2026-05-07 20:18 51.61507 -0.64672 6025 ft 238 kts 256°
2026-05-07 20:18 51.61038 -0.67227 5548 ft 237 kts 251°
2026-05-07 20:18 51.60517 -0.69746 5094 ft 237 kts 250°
2026-05-07 20:18 51.59989 -0.72270 4616 ft 238 kts 248°
2026-05-07 20:19 51.59070 -0.74425 4174 ft 233 kts 220°
2026-05-07 20:19 51.57663 -0.75580 3997 ft 228 kts 191°
2026-05-07 20:19 51.56110 -0.75867 3937 ft 228 kts 182°
2026-05-07 20:19 51.54512 -0.75993 3502 ft 230 kts 181°
2026-05-07 20:20 51.52923 -0.76095 3121 ft 227 kts 181°
2026-05-07 20:20 51.51369 -0.76191 2982 ft 215 kts 181°
2026-05-07 20:20 51.49977 -0.76001 2986 ft 189 kts 157°
2026-05-07 20:20 51.48991 -0.74755 2989 ft 180 kts 128°
2026-05-07 20:21 51.48282 -0.73092 2991 ft 181 kts 121°
2026-05-07 20:21 51.47799 -0.71231 2921 ft 179 kts 103°
2026-05-07 20:21 51.47686 -0.69298 2699 ft 169 kts 91°
2026-05-07 20:21 51.47686 -0.67467 2485 ft 161 kts 91°
2026-05-07 20:22 51.47691 -0.66291 2334 ft 158 kts 91°
2026-05-07 20:22 51.47694 -0.64521 2113 ft 160 kts 92°
2026-05-07 20:22 51.47700 -0.62146 1820 ft 159 kts 91°
2026-05-07 20:22 51.47704 -0.60978 1652 ft 150 kts 91°
2026-05-07 20:23 51.47710 -0.59365 1462 ft 142 kts 92°
2026-05-07 20:23 51.47715 -0.57784 1279 ft 142 kts 92°
2026-05-07 20:23 51.47720 -0.56206 1071 ft 142 kts 91°
2026-05-07 20:23 51.47728 -0.54630 887 ft 140 kts 91°
2026-05-07 20:24 51.47735 -0.53067 670 ft 138 kts 92°
2026-05-07 20:24 51.47739 -0.51531 516 ft 138 kts 91°
2026-05-07 20:24 51.47747 -0.50024 303 ft 135 kts 92°
2026-05-07 20:24 51.47751 -0.48516 128 ft 135 kts 92°
2026-05-07 20:25 51.47753 -0.47152 93 ft 100 kts 89°
2026-05-07 20:25 51.47756 -0.46325 99 ft 45 kts 90°
2026-05-07 20:25 51.47653 -0.46094 94 ft 0 kts 145°
2026-05-07 20:25 51.47651 -0.46092 94 ft 1 kts 145°
2026-05-07 20:26 51.47647 -0.46087 93 ft 0 kts 145°
2026-05-07 20:26 51.47643 -0.46082 92 ft 1 kts 145°
2026-05-07 20:26 51.47577 -0.46075 96 ft 12 kts 190°
2026-05-07 20:26 51.47517 -0.45992 95 ft 21 kts 102°
2026-05-07 20:27 51.47513 -0.45735 94 ft 22 kts 94°
2026-05-07 20:27 51.47506 -0.45499 97 ft 21 kts 91°
2026-05-07 20:27 51.47505 -0.45261 95 ft 21 kts 91°
2026-05-07 20:27 51.47505 -0.45029 97 ft 22 kts 89°
2026-05-07 20:28 51.47510 -0.44773 94 ft 23 kts 89°
2026-05-07 20:28 51.47463 -0.44568 95 ft 19 kts 167°
2026-05-07 20:28 51.47323 -0.44556 90 ft 21 kts 179°
2026-05-07 20:28 51.47181 -0.44555 91 ft 21 kts 179°
2026-05-07 20:29 51.47051 -0.44554 90 ft 14 kts 184°
2026-05-07 20:29 51.46954 -0.44560 91 ft 13 kts 180°
2026-05-07 20:29 51.46872 -0.44573 94 ft 8 kts 208°
2026-05-07 20:29 51.46860 -0.44624 95 ft 6 kts 262°
2026-05-07 20:30 51.46858 -0.44676 95 ft 0 kts 265°